Orbital Elements at Epoch 2459200.5 (2020-Dec-17.0) TDB
Reference: JPL 17 (heliocentric ecliptic J2000)
Element | Value | Uncertainty (1-sigma) | Units |
e | .1624630420050954 | 4.8162e-08 | |
a | 2.327043323354105 | 8.4311e-09 | au |
q | 1.94898478616435 | 1.1041e-07 | au |
i | 3.378234372779369 | 3.6889e-06 | deg |
node | 64.72942696102362 | 9.0976e-05 | deg |
peri | 246.880198031893 | 9.2442e-05 | deg |
M | 59.49654795866656 | 1.5489e-05 | deg |
tp | 2458986.213704212553 (2020-May-16.71370421) | 5.5795e-05 | TDB |
period | 1296.597351111425 3.55 | 7.0465e-06 1.929e-08 | d yr |
n | .2776498036891815 | 1.5089e-09 | deg/d |
Q | 2.705101860543859 | 9.8008e-09 | au |
|
| | Orbit Determination Parameters
Additional Information
|